This is the latest recevied weather packets stored in our database for station/object ES2ADF-5. If no packets are shown the sender has not sent any weather packets the latest 10 day(s).
| Time | Temp. | Humidity | Pressure | Rain* | Wind** | Luminosity | Snow |
|---|---|---|---|---|---|---|---|
| 1777831691 | 11.11° C | 66% | 1006.9 hPa | 0 mm | - | - | - |
| 1777831391 | 11.67° C | 65% | 1006.8 hPa | 0 mm | - | - | - |
| 1777831091 | 11.67° C | 64% | 1006.8 hPa | 0 mm | - | - | - |
| 1777830791 | 11.67° C | 64% | 1006.8 hPa | 0 mm | - | - | - |
| 1777830490 | 12.22° C | 63% | 1006.7 hPa | 0 mm | - | - | - |
| 1777830190 | 12.22° C | 63% | 1006.7 hPa | 0 mm | - | - | - |
| 1777829890 | 12.78° C | 62% | 1006.7 hPa | 0 mm | - | - | - |
| 1777829589 | 13.89° C | 62% | 1006.7 hPa | 0 mm | - | - | - |
| 1777829289 | 13.89° C | 61% | 1006.7 hPa | 0 mm | - | - | - |
| 1777828989 | 13.89° C | 61% | 1006.8 hPa | 0 mm | - | - | - |
| 1777828689 | 14.44° C | 60% | 1006.7 hPa | 0 mm | - | - | - |
| 1777828388 | 15° C | 59% | 1006.6 hPa | 0 mm | - | - | - |
| 1777828088 | 15° C | 58% | 1006.5 hPa | 0 mm | - | - | - |
| 1777827788 | 15° C | 57% | 1006.3 hPa | 0 mm | - | - | - |
| 1777827487 | 15° C | 58% | 1006.3 hPa | 0 mm | - | - | - |
| 1777827187 | 15° C | 58% | 1006.3 hPa | 0 mm | - | - | - |
| 1777826887 | 15° C | 58% | 1006.4 hPa | 0 mm | - | - | - |
| 1777826586 | 15° C | 58% | 1006.5 hPa | 0 mm | - | - | - |
| 1777826286 | 15° C | 57% | 1006.5 hPa | 0 mm | - | - | - |
| 1777825986 | 15° C | 57% | 1006.6 hPa | 0 mm | - | - | - |
| 1777825686 | 15° C | 57% | 1006.5 hPa | 0 mm | - | - | - |
| 1777825385 | 15° C | 57% | 1006.4 hPa | 0 mm | - | - | - |
| 1777825085 | 15° C | 57% | 1006.6 hPa | 0 mm | - | - | - |
| 1777824785 | 15° C | 57% | 1006.5 hPa | 0 mm | - | - | - |
| 1777824484 | 15.56° C | 56% | 1006.5 hPa | 0 mm | - | - | - |
* Rain latest hour (hover to see other rain measurements)
** Current wind speed in m/s (hover to see current wind gust speed)